Location: Auckland
(36.8670°S, 174.7670°E)
Time: 23:20:09
(UTC+12:00)

Hubble Space Telescope - Pass Details

Date: 04 July 2019
Orbit: 536 x 540 km, 28.5° (Epoch: 19 July)

Event Time Altitude Azimuth Distance (km) Brightness Sun altitude
Exits shadow 05:24:01 19° 1° (N) 1,335 2.9 -25.4°
Maximum altitude 05:24:36 19° 13° (NNE) 1,314 2.9 -25.2°
Drops below altitude 10° 05:27:34 10° 59° (ENE) 1,794 4.3 -24.7°
Sets 05:30:20 0° 76° (ENE) 2,687 5.8 -24.1°
